Location: Unspecified
(0.0000°N, 0.0000°E)
Time: 02:37:39
(UTC+00:00)

Kosmos-2239 - Visible Passes

Search period start: 16 May 2026 00:00
Search period end: 26 May 2026 00:00
Orbit: 962 x 997 km, 82.9° (Epoch: 15 May)

Date Brightness Start Highest point End Pass type
(mag) Time Alt. Az. Time Alt. Az. Time Alt. Az.
16 May 6.6 19:56:03 10° SSW 20:01:25 31° W 20:06:46 10° NNW visible
17 May 5.2 18:36:53 10° SSE 18:42:45 45° E 18:48:34 10° NNE visible
17 May 7.7 20:25:09 10° WSW 20:27:52 13° W 20:30:35 10° WNW visible
18 May 5.1 19:03:01 10° S 19:09:12 81° W 19:15:22 10° N visible
19 May 6.5 19:30:06 10° SSW 19:35:39 35° W 19:41:12 10° NNW visible
20 May 5.4 18:11:16 10° SSE 18:16:59 40° E 18:22:39 10° NNE visible
20 May 7.7 19:58:43 10° WSW 20:02:06 15° W 20:05:30 10° NW visible
21 May 5.0 18:37:15 10° S 18:43:26 89° E 18:49:36 10° N visible
22 May 6.3 19:04:10 10° SSW 19:09:53 40° W 19:15:36 10° NNW visible
23 May 7.7 19:32:26 10° SW 19:36:20 17° W 19:40:15 10° NW visible
24 May 8.0 05:08:32 10° NE 05:11:48 14° E 05:15:04 10° ESE visible
24 May 5.0 18:11:29 10° S 18:17:40 80° E 18:23:50 10° N visible
25 May 7.0 05:32:39 10° NNE 05:38:16 34° E 05:43:53 10° SSE visible
25 May 6.2 18:38:16 10° SSW 18:44:07 46° W 18:49:58 10° NNW visible
